Temp
-9 -10 -9 -9 -9 -9 -9 -9 -9 -9 -9 -9 -11 -11 -11 -11 -12 -12 -12 -12 -12 -13 -13 -13 -14 -14 -14 -14 -15 -17 -18 -19 -20 -19 -17 -16 -15 -15 -15 -15 -15 -15 -15 -16
-10 -10 -10 -10 -10 -9 -10 -9 -9 -9 -10 -9 -10 -11 -10 -11 -11 -12 -12 -13 -13 -13 -14 -14 -15 -14 -14 -15 -16 -18 -23 -23 -21 -20 -19 -17 -17 -16 -16 -16 -16 -15 -16 -16
-10 -10 -10 -11 -11 -10 -11 -10 -10 -10 -10 -11 -10 -11 -11 -12 -12 -12 -13 -13 -14 -14 -15 -15 -14 -15 -15 -16 -18 -21 -23 -23 -23 -22 -21 -19 -18 -17 -17 -17 -16 -16 -16 -16
-10 -11 -11 -11 -11 -11 -10 -10 -11 -11 -10 -10 -12 -11 -12 -13 -13 -13 -14 -14 -14 -15 -15 -16 -16 -17 -17 -19 -21 -23 -24 -25 -23 -23 -22 -21 -19 -18 -18 -18 -17 -17 -17 -16
-11 -11 -11 -11 -11 -11 -11 -11 -11 -11 -11 -11 -13 -12 -13 -14 -14 -14 -15 -15 -15 -16 -17 -17 -18 -19 -21 -22 -23 -25 -26 -26 -25 -24 -23 -22 -20 -19 -18 -18 -17 -17 -17 -16
-11 -11 -11 -11 -11 -11 -11 -11 -12 -11 -12 -11 -12 -13 -13 -15 -15 -15 -15 -16 -17 -17 -18 -19 -20 -21 -23 -25 -26 -27 -27 -26 -26 -25 -24 -23 -22 -21 -18 -18 -18 -17 -17 -16
-11 -11 -11 -12 -12 -12 -12 -12 -13 -12 -12 -12 -13 -14 -15 -15 -16 -16 -16 -17 -18 -19 -19 -19 -21 -23 -25 -25 -27 -27 -27 -26 -26 -26 -25 -23 -23 -21 -21 -19 -18 -18 -17 -17
-11 -11 -12 -12 -12 -12 -13 -13 -14 -14 -14 -12 -13 -14 -15 -16 -17 -17 -17 -18 -19 -19 -20 -21 -24 -26 -27 -26 -26 -27 -26 -26 -27 -27 -26 -24 -23 -22 -21 -21 -19 -18 -17 -17
-12 -12 -12 -12 -13 -13 -14 -14 -15 -15 -14 -14 -13 -14 -15 -16 -17 -17 -18 -19 -19 -20 -21 -22 -25 -27 -27 -26 -26 -26 -27 -27 -27 -27 -27 -26 -23 -23 -22 -21 -21 -19 -18 -17
-12 -12 -12 -13 -13 -13 -14 -15 -15 -16 -16 -16 -14 -15 -17 -18 -18 -17 -18 -19 -19 -20 -21 -22 -25 -27 -27 -26 -26 -26 -26 -25 -26 -27 -27 -27 -25 -24 -23 -21 -20 -19 -19 -17
-13 -13 -13 -13 -13 -14 -14 -15 -16 -16 -17 -17 -17 -15 -19 -19 -19 -19 -19 -20 -20 -21 -23 -24 -26 -27 -27 -26 -26 -25 -25 -25 -25 -26 -26 -27 -26 -24 -23 -21 -21 -19 -19 -18
-13 -14 -14 -14 -14 -14 -15 -16 -16 -17 -17 -17 -19 -16 -19 -19 -19 -21 -21 -20 -21 -22 -24 -26 -27 -27 -26 -26 -25 -25 -25 -25 -25 -25 -26 -26 -26 -25 -23 -22 -20 -19 -19 -18
-13 -13 -14 -14 -14 -15 -15 -16 -16 -17 -17 -18 -19 -19 -21 -21 -21 -21 -21 -21 -22 -23 -24 -26 -27 -26 -26 -25 -25 -24 -24 -24 -24 -25 -24 -26 -26 -26 -24 -23 -21 -19 -19 -19
-13 -13 -15 -15 -16 -16 -16 -17 -17 -18 -18 -19 -19 -19 -20 -20 -21 -21 -21 -21 -22 -24 -26 -26 -26 -25 -25 -24 -24 -24 -24 -24 -24 -24 -25 -25 -26 -26 -25 -22 -21 -20 -19 -19
-14 -14 -15 -15 -16 -16 -16 -17 -18 -19 -20 -19 -19 -20 -22 -22 -22 -23 -23 -22 -24 -25 -25 -26 -26 -25 -25 -24 -24 -23 -25 -25 -25 -25 -25 -25 -25 -26 -25 -23 -22 -20 -19 -19
-15 -15 -15 -15 -16 -17 -17 -17 -19 -20 -20 -20 -20 -20 -22 -21 -24 -24 -23 -24 -25 -25 -26 -26 -26 -25 -25 -25 -24 -25 -25 -25 -25 -26 -25 -25 -26 -26 -25 -24 -22 -20 -19 -18
-16 -16 -16 -16 -17 -17 -16 -18 -18 -18 -19 -21 -21 -22 -22 -22 -23 -24 -24 -24 -25 -26 -27 -27 -26 -26 -26 -26 -26 -27 -28 -28 -27 -26 -26 -25 -26 -26 -25 -24 -21 -20 -19 -19
-16 -16 -17 -17 -18 -17 -18 -18 -19 -19 -19 -21 -21 -22 -23 -23 -22 -25 -26 -26 -26 -26 -27 -28 -26 -26 -26 -26 -27 -28 -29 -29 -29 -27 -26 -25 -26 -25 -26 -24 -21 -21 -20 -19
-17 -17 -18 -18 -18 -18 -18 -19 -19 -19 -19 -22 -23 -23 -23 -24 -24 -24 -26 -26 -27 -27 -28 -28 -27 -27 -26 -27 -28 -29 -28 -28 -28 -28 -26 -26 -26 -25 -26 -25 -23 -21 -20 -19
-17 -18 -18 -18 -18 -18 -19 -20 -19 -20 -20 -22 -22 -23 -24 -24 -24 -23 -24 -25 -26 -27 -29 -28 -27 -26 -26 -27 -28 -28 -28 -28 -27 -28 -27 -26 -26 -26 -26 -24 -23 -21 -21 -20
-18 -18 -19 -19 -19 -19 -21 -20 -20 -21 -22 -23 -24 -24 -24 -24 -25 -25 -25 -26 -27 -28 -29 -28 -28 -26 -26 -26 -27 -28 -27 -27 -26 -26 -26 -26 -25 -26 -25 -24 -23 -21 -20 -20
-19 -19 -19 -20 -20 -20 -21 -21 -21 -22 -23 -24 -24 -25 -25 -25 -25 -26 -26 -27 -27 -28 -28 -28 -28 -27 -26 -26 -27 -28 -27 -27 -26 -26 -25 -25 -25 -26 -25 -24 -23 -21 -19 -20
-19 -19 -20 -20 -21 -22 -21 -22 -22 -24 -24 -25 -25 -25 -25 -26 -26 -26 -26 -27 -27 -28 -28 -28 -29 -27 -26 -27 -27 -28 -26 -27 -26 -26 -26 -26 -26 -26 -25 -24 -22 -21 -20 -20
-20 -20 -20 -21 -22 -21 -23 -24 -25 -25 -26 -26 -26 -26 -26 -27 -26 -27 -27 -27 -28 -28 -28 -28 -29 -28 -25 -26 -27 -28 -26 -26 -26 -26 -26 -27 -26 -25 -25 -24 -21 -21 -20 -19
-20 -22 -22 -21 -22 -22 -24 -26 -26 -27 -27 -27 -27 -27 -27 -27 -27 -27 -27 -28 -28 -28 -29 -28 -29 -28 -26 -26 -26 -27 -26 -26 -26 -26 -26 -26 -25 -25 -24 -23 -21 -20 -20 -19
-23 -23 -22 -22 -22 -23 -24 -25 -27 -27 -27 -27 -27 -27 -27 -28 -28 -28 -28 -29 -29 -29 -29 -28 -29 -29 -29 -26 -25 -25 -26 -26 -26 -26 -25 -25 -25 -25 -24 -23 -22 -21 -20 -19
Height
5815 5811 5807 5804 5802 5798 5793 5788 5782 5778 5774 5767 5755 5751 5743 5735 5729 5722 5713 5701 5694 5685 5676 5667 5658 5650 5639 5624 5609 5593 5589 5587 5588 5594 5597 5597 5600 5604 5607 5612 5617 5621 5625 5630
5808 5803 5798 5795 5792 5787 5782 5777 5772 5768 5760 5755 5748 5739 5731 5723 5716 5707 5698 5688 5676 5667 5659 5649 5640 5629 5617 5601 5587 5571 5562 5564 5565 5566 5572 5574 5576 5582 5587 5593 5599 5604 5609 5615
5799 5794 5788 5785 5781 5777 5771 5763 5758 5754 5746 5736 5731 5723 5711 5705 5699 5690 5680 5668 5658 5649 5638 5626 5615 5604 5589 5572 5552 5538 5535 5538 5539 5538 5542 5548 5554 5558 5565 5574 5580 5588 5593 5599
5787 5782 5778 5774 5769 5763 5757 5751 5746 5741 5733 5726 5713 5706 5700 5693 5683 5674 5664 5657 5646 5634 5621 5606 5590 5575 5557 5539 5522 5510 5499 5504 5505 5507 5513 5518 5527 5537 5544 5554 5563 5571 5578 5586
5775 5768 5764 5760 5755 5750 5745 5739 5734 5727 5718 5707 5699 5690 5683 5674 5666 5657 5650 5638 5627 5610 5594 5579 5564 5542 5523 5507 5495 5484 5477 5477 5478 5479 5484 5489 5498 5510 5521 5533 5543 5552 5561 5565
5765 5758 5753 5749 5744 5737 5731 5726 5719 5714 5704 5692 5683 5673 5675 5659 5647 5636 5628 5617 5604 5589 5580 5563 5543 5523 5504 5489 5479 5466 5460 5455 5454 5457 5459 5466 5473 5484 5494 5510 5524 5534 5545 5550
5752 5747 5742 5737 5731 5724 5717 5710 5701 5700 5692 5686 5670 5655 5646 5640 5627 5618 5608 5598 5587 5573 5558 5535 5516 5501 5486 5475 5466 5456 5448 5441 5434 5436 5439 5445 5450 5461 5471 5486 5502 5516 5528 5538
5740 5734 5730 5724 5719 5711 5704 5698 5689 5676 5673 5672 5670 5647 5634 5623 5609 5600 5589 5578 5566 5555 5537 5519 5498 5481 5470 5461 5454 5447 5437 5433 5426 5424 5424 5426 5429 5442 5450 5462 5476 5492 5505 5519
5727 5722 5717 5710 5704 5698 5691 5684 5677 5664 5656 5649 5649 5636 5625 5609 5601 5590 5579 5565 5553 5536 5522 5504 5483 5470 5459 5451 5442 5435 5429 5425 5419 5414 5412 5410 5411 5421 5431 5442 5457 5472 5489 5500
5716 5708 5704 5698 5691 5685 5678 5669 5661 5648 5639 5631 5639 5625 5608 5593 5589 5585 5574 5560 5542 5528 5508 5488 5472 5456 5447 5437 5430 5423 5416 5411 5408 5403 5399 5397 5396 5398 5412 5425 5439 5452 5467 5483
5705 5698 5692 5684 5679 5670 5662 5655 5648 5638 5629 5615 5608 5618 5599 5580 5566 5558 5553 5540 5523 5505 5483 5462 5448 5441 5428 5423 5417 5411 5403 5397 5393 5389 5385 5382 5380 5381 5391 5408 5420 5433 5449 5464
5692 5684 5678 5672 5665 5658 5648 5640 5633 5620 5614 5604 5594 5596 5583 5569 5553 5539 5534 5516 5504 5488 5469 5450 5434 5424 5415 5409 5404 5397 5390 5382 5377 5373 5369 5366 5364 5363 5369 5388 5404 5416 5430 5445
5679 5669 5662 5657 5655 5647 5637 5628 5616 5606 5596 5595 5577 5576 5565 5549 5543 5534 5517 5503 5490 5472 5455 5438 5426 5413 5403 5397 5391 5384 5374 5368 5360 5355 5353 5350 5347 5346 5352 5368 5386 5399 5414 5427
5663 5657 5652 5645 5640 5633 5623 5614 5604 5594 5583 5577 5567 5555 5559 5538 5525 5518 5508 5491 5474 5457 5434 5421 5412 5400 5390 5382 5374 5367 5358 5349 5344 5338 5335 5334 5330 5328 5333 5349 5366 5381 5396 5412
5647 5641 5636 5630 5627 5619 5613 5605 5589 5578 5571 5563 5564 5544 5535 5520 5508 5500 5488 5472 5455 5443 5427 5412 5400 5387 5375 5365 5355 5346 5339 5331 5325 5321 5319 5318 5316 5315 5319 5334 5349 5364 5380 5397
5630 5624 5620 5618 5613 5604 5598 5596 5583 5567 5558 5550 5540 5538 5524 5515 5495 5486 5476 5463 5443 5425 5410 5400 5387 5373 5359 5347 5337 5327 5316 5307 5304 5303 5302 5302 5301 5303 5308 5318 5334 5351 5367 5381
5615 5609 5604 5602 5597 5587 5587 5583 5572 5562 5549 5539 5530 5520 5513 5509 5491 5472 5465 5452 5426 5411 5392 5379 5372 5358 5344 5331 5318 5305 5290 5278 5275 5277 5280 5283 5285 5288 5294 5303 5320 5339 5354 5366
5599 5594 5588 5586 5581 5570 5569 5565 5557 5551 5542 5529 5522 5511 5500 5493 5488 5465 5445 5433 5422 5400 5382 5370 5355 5344 5330 5314 5297 5283 5269 5261 5255 5253 5258 5264 5269 5274 5280 5293 5310 5326 5341 5354
5582 5578 5572 5569 5565 5557 5554 5548 5541 5534 5530 5518 5510 5501 5490 5479 5478 5472 5445 5429 5410 5396 5372 5357 5341 5328 5316 5301 5283 5268 5258 5251 5244 5239 5243 5248 5254 5261 5269 5281 5299 5315 5331 5345
5567 5561 5559 5554 5545 5542 5540 5531 5527 5520 5515 5506 5498 5489 5480 5470 5461 5458 5443 5423 5409 5392 5371 5354 5338 5323 5309 5292 5273 5257 5250 5245 5238 5233 5234 5238 5240 5250 5260 5273 5289 5305 5321 5337
5551 5546 5543 5536 5527 5530 5522 5515 5512 5507 5504 5493 5486 5478 5470 5461 5445 5433 5422 5413 5394 5370 5360 5353 5332 5314 5300 5284 5268 5253 5246 5240 5233 5229 5228 5230 5234 5241 5252 5268 5284 5299 5314 5328
5536 5532 5531 5519 5513 5514 5509 5502 5497 5491 5486 5481 5474 5467 5459 5447 5439 5426 5412 5398 5383 5368 5360 5347 5329 5312 5297 5279 5265 5250 5242 5237 5229 5225 5224 5227 5233 5239 5252 5265 5280 5296 5310 5325
5520 5521 5514 5509 5503 5496 5490 5485 5479 5475 5471 5466 5461 5454 5448 5439 5428 5414 5404 5391 5378 5362 5350 5340 5327 5309 5294 5278 5263 5248 5240 5236 5229 5226 5225 5227 5232 5242 5253 5264 5276 5292 5308 5322
5507 5502 5498 5495 5490 5482 5474 5471 5467 5464 5459 5453 5447 5441 5434 5426 5417 5407 5395 5382 5369 5357 5345 5335 5323 5308 5294 5280 5266 5252 5242 5238 5233 5231 5230 5233 5239 5245 5253 5261 5274 5289 5305 5316
5494 5485 5484 5483 5479 5471 5464 5458 5455 5451 5447 5441 5436 5429 5421 5414 5405 5396 5384 5372 5361 5348 5339 5330 5318 5305 5291 5281 5269 5259 5248 5242 5238 5237 5239 5241 5244 5247 5252 5260 5270 5284 5296 5308
5475 5473 5472 5471 5468 5460 5454 5448 5444 5439 5434 5428 5423 5416 5410 5402 5394 5384 5372 5362 5352 5341 5333 5325 5316 5304 5290 5279 5269 5262 5254 5247 5244 5243 5244 5245 5246 5249 5252 5258 5267 5278 5289 5298
Wind_Speed
37 37 40 41 42 44 47 48 48 48 51 55 54 53 54 58 58 64 65 70 68 66 68 71 72 73 78 82 87 88 82 73 55 64 71 73 77 73 69 64 60 60 58 54
39 39 40 41 42 43 43 48 50 51 53 56 57 59 65 62 67 69 68 67 70 73 71 74 73 78 83 87 90 91 71 51 53 56 68 76 76 75 68 67 65 64 61 59
41 42 40 40 41 44 46 49 52 56 57 60 62 66 69 68 70 70 71 73 74 75 76 78 82 84 88 90 96 92 77 60 60 64 64 66 76 75 73 63 68 67 65 62
46 46 45 45 48 51 54 54 55 55 59 63 65 71 69 69 73 73 74 73 74 76 77 81 85 89 92 95 95 86 70 60 62 70 69 69 64 67 76 72 66 67 66 59
49 47 48 51 52 54 54 56 54 57 62 69 71 74 72 73 74 75 74 75 76 77 81 85 89 95 97 94 87 75 67 62 58 64 71 76 68 63 74 75 70 68 69 67
53 55 54 56 57 57 58 58 59 62 65 74 76 74 71 73 77 78 78 77 75 80 81 85 90 92 88 74 71 64 58 56 54 56 68 76 80 63 64 78 73 63 70 68
59 56 57 60 60 62 61 62 65 64 68 72 74 76 74 77 79 78 80 78 77 79 83 89 92 88 71 60 42 47 45 42 43 46 54 70 76 78 55 65 75 59 48 72
59 61 61 64 65 65 64 63 63 68 70 73 69 74 76 77 78 79 79 78 79 81 86 89 86 65 56 40 38 39 41 35 36 38 42 57 80 75 79 59 68 75 51 50
61 64 67 68 67 67 65 63 63 69 73 73 71 73 73 75 74 75 76 77 78 84 85 83 75 60 48 42 41 42 45 43 40 40 38 41 65 79 84 70 61 70 74 50
63 67 70 70 68 66 65 65 66 73 71 73 70 72 73 73 73 72 71 73 78 82 83 79 69 55 45 44 44 50 48 45 44 45 42 39 44 70 80 84 68 72 68 73
70 72 73 71 67 65 65 66 68 70 69 75 76 67 64 72 75 76 74 74 81 85 84 78 68 55 51 42 45 49 53 51 45 44 42 42 40 60 72 84 73 73 71 79
74 77 76 69 65 64 68 67 70 71 72 73 72 71 68 69 75 75 74 79 84 86 82 73 64 56 46 43 46 52 52 50 51 47 40 44 41 46 71 77 80 78 76 79
77 79 77 72 65 67 66 68 71 71 72 69 72 70 65 71 70 72 75 80 85 87 82 70 56 55 50 42 51 49 54 53 52 47 43 41 39 43 64 75 85 81 80 84
81 78 69 65 62 62 66 68 70 69 69 68 70 71 64 71 74 72 73 81 87 87 84 68 55 57 48 50 52 51 55 54 52 49 45 39 40 41 53 76 84 82 83 77
77 69 64 64 61 63 65 64 67 69 65 70 64 67 66 71 73 72 77 84 89 88 81 57 58 62 56 53 58 61 56 52 46 43 41 38 40 39 49 71 83 85 85 79
67 66 63 63 60 63 64 60 62 65 67 67 67 64 65 67 72 75 78 83 89 90 80 60 61 66 61 63 67 71 71 65 56 46 41 36 39 39 46 61 83 86 88 83
66 64 64 62 60 62 59 56 59 61 65 64 64 63 64 63 69 76 80 83 90 90 79 71 67 68 67 71 72 72 63 54 52 49 45 42 39 39 48 62 79 85 91 88
66 67 64 60 58 62 58 53 57 59 62 61 61 61 63 66 66 73 81 83 85 88 78 74 77 76 72 74 70 66 51 45 41 40 41 41 38 39 47 54 75 78 76 85
66 63 60 58 57 57 56 56 56 59 59 56 56 59 63 65 66 66 77 80 83 80 74 79 82 79 72 72 65 56 42 36 38 30 32 35 35 38 48 50 58 76 71 79
61 59 58 57 56 54 54 56 57 61 57 55 57 60 61 67 70 71 76 81 81 75 67 74 79 71 68 67 66 46 32 31 30 23 26 30 33 35 47 54 55 66 73 67
58 58 55 55 57 53 52 56 59 58 54 55 56 59 62 66 72 75 79 79 79 77 65 68 77 71 64 66 61 44 27 32 28 21 24 27 29 30 52 54 55 61 65 61
55 54 50 54 56 54 55 58 57 57 55 54 56 59 62 67 69 73 78 79 77 73 59 64 73 69 64 61 60 44 25 28 24 17 17 18 23 33 52 55 54 58 66 65
53 50 51 52 54 54 55 57 59 57 55 54 56 59 63 65 69 74 76 76 74 70 58 60 66 66 58 50 55 46 20 23 19 11 10 12 22 36 43 46 45 55 58 55
47 49 52 51 48 53 58 56 55 54 54 54 56 60 64 65 68 71 74 76 73 66 56 56 61 59 55 40 41 46 17 15 13 3 6 13 23 30 35 42 41 48 58 53
48 50 48 48 49 55 55 55 53 51 51 53 56 60 63 66 67 69 72 71 70 65 55 52 56 53 52 34 30 34 21 11 7 11 7 9 16 20 25 35 40 45 50 51
46 45 48 50 52 56 56 54 51 50 52 54 57 60 63 64 65 67 70 68 67 66 52 48 49 49 56 44 25 30 21 11 4 11 8 9 12 17 24 34 38 44 47 43
Wind_Direction
313 307 304 303 303 306 307 307 309 313 317 315 314 314 311 311 312 315 314 315 313 310 309 307 307 305 304 300 296 294 289 285 266 254 251 250 248 247 242 240 234 236 238 238
320 315 308 307 307 307 309 310 315 319 317 316 312 310 311 315 317 314 314 314 311 311 309 309 306 306 305 300 292 288 290 272 264 255 246 248 246 244 242 238 232 234 234 237
319 314 311 309 308 309 312 315 317 318 317 314 313 313 317 318 315 317 317 317 312 311 312 311 309 308 304 298 292 291 290 275 258 253 246 246 244 242 239 236 234 230 231 233
318 313 310 310 313 316 315 315 316 316 315 314 317 316 317 319 318 318 317 313 313 314 312 310 309 306 301 298 298 300 290 274 258 246 245 238 231 236 238 233 233 228 231 231
319 315 313 315 316 314 312 312 314 315 315 316 316 318 319 320 320 315 314 314 317 315 314 314 311 307 306 307 307 299 293 284 268 254 241 239 234 227 229 231 227 230 227 227
318 316 314 314 314 311 311 312 313 316 317 317 318 317 321 319 316 316 317 319 319 316 315 312 309 309 311 306 303 302 302 294 284 267 246 237 235 234 219 225 223 226 227 228
313 313 313 313 313 311 312 315 315 316 316 318 318 316 318 317 315 318 319 319 319 318 316 314 312 311 308 308 304 305 309 310 295 275 261 238 235 232 222 221 217 214 224 228
310 309 311 313 313 311 310 312 314 314 313 315 316 314 315 316 319 319 320 319 318 319 318 316 314 312 308 302 301 303 309 315 310 304 286 253 239 233 231 220 218 210 215 226
310 311 312 312 311 308 309 310 311 310 312 311 315 314 314 315 315 317 316 317 319 320 318 317 315 310 299 294 294 299 301 299 300 296 295 285 245 233 233 226 227 208 212 212
312 311 311 311 308 306 307 307 312 310 310 308 314 313 315 313 314 314 313 317 319 319 321 319 314 306 293 282 290 305 306 307 300 291 285 288 259 240 229 226 221 215 209 208
309 309 308 308 306 305 306 308 308 307 307 308 311 314 316 312 312 314 318 319 321 326 327 323 318 314 305 275 294 307 308 304 312 304 285 280 281 237 229 220 219 213 208 210
310 309 307 305 303 303 305 307 308 305 306 309 309 318 310 312 314 315 319 321 325 328 328 324 319 315 305 281 301 304 302 301 306 306 295 280 284 240 228 214 214 207 204 207
309 308 305 301 300 302 303 305 304 304 306 310 306 315 315 310 312 314 321 323 326 329 329 326 319 312 302 294 299 296 299 300 302 301 297 275 282 250 224 217 210 206 203 211
307 303 299 296 297 299 302 304 302 303 305 305 312 310 312 311 312 317 322 324 327 331 330 327 320 320 306 300 299 297 305 298 294 294 291 282 275 250 222 220 210 208 202 211
301 298 295 293 296 298 300 303 302 303 304 306 309 309 312 313 315 321 322 327 328 331 330 325 325 326 320 304 313 309 304 295 286 287 285 282 272 257 218 216 211 205 200 209
296 293 292 294 295 297 299 304 301 302 305 306 307 311 310 314 316 319 325 328 329 332 330 326 328 327 324 322 314 308 301 293 284 277 274 278 263 252 228 213 214 203 202 205
292 292 293 293 296 296 302 304 303 304 304 304 307 309 311 314 315 323 325 329 331 332 329 330 332 331 326 322 318 315 313 299 283 271 263 261 263 248 226 211 209 204 204 201
292 292 292 296 299 299 303 304 302 304 304 303 305 307 309 313 318 324 326 332 332 332 328 329 329 332 328 326 322 319 313 303 297 275 251 252 259 242 221 206 209 208 203 205
292 293 294 297 299 299 303 303 302 303 306 303 304 305 309 313 317 323 327 330 333 332 327 329 329 333 332 333 334 322 314 311 305 277 242 243 254 234 217 205 209 210 205 206
291 292 295 298 296 299 303 300 303 305 305 302 302 306 310 312 316 322 326 330 332 332 328 328 329 333 331 339 336 323 313 315 307 279 237 239 246 229 206 192 205 207 212 202
291 294 296 295 293 302 300 301 304 303 304 301 305 307 310 313 319 325 329 332 334 331 329 329 328 331 331 335 342 332 309 314 310 286 251 238 226 223 204 192 194 205 211 209
293 293 297 293 295 300 301 301 302 302 301 303 303 306 309 314 321 325 329 332 335 331 325 327 327 332 338 340 342 335 302 314 315 291 259 236 224 206 202 195 197 203 208 214
294 295 293 292 295 299 301 301 302 300 301 300 301 305 310 315 321 325 329 332 335 329 323 325 329 331 342 341 342 348 306 315 323 301 245 230 194 195 200 189 186 199 204 206
295 291 290 293 298 300 298 299 297 297 298 299 303 306 311 317 322 325 328 331 333 328 320 321 327 335 346 344 348 348 334 327 335 268 179 169 192 203 204 187 179 199 203 205
294 290 291 297 298 299 296 294 295 296 296 298 302 308 314 319 322 326 329 330 330 328 321 318 326 338 341 339 355 354 349 330 316 190 193 211 231 226 208 196 180 196 196 206
289 287 292 296 296 295 295 295 294 295 296 301 306 311 315 320 324 327 328 328 327 326 320 316 323 336 337 342 321 330 3 1 290 206 200 251 246 248 215 189 187 195 198 202